Regional Weather Roundup
Issued by NWS

Home | Current Version | Previous Version | Graphics & Text | Print | Product List | Glossary On
Versions: 1 2 3 4 5 6 7 8 9 10 11 12 13 14 15 16 17 18 19 20 21 22 23 24 25 26 27 28 29 30 31 32 33 34 35 36 37 38 39 40 41 42 43 44 45 46 47 48 49 50
000
ASUS45 KBOU 292307
RWRCO

WEATHER ROUNDUP FOR COLORADO
NATIONAL WEATHER SERVICE DENVER/BOULDER CO
500 PM MDT FRI AUG 29 2014

NOTE: "FAIR" INDICATES FEW OR NO CLOUDS BELOW 12000 FEET WITH NO
SIGNIFICANT WEATHER AND/OR OBSTRUCTIONS TO VISIBILITY.

COZ001>005-013-030-031-300000-
...NORTHWEST COLORADO...

CITY           SKY/WX    TMP DP  RH WIND       PRES   REMARKS
CRAIG          MOSUNNY   76  42  29 W8        30.14S
HAYDEN         PTSUNNY   73  41  31 W10       30.17S
MEEKER         MOSUNNY   77  39  25 W10       30.16S
MOUNT WERNER   NOT AVBL
STEAMBOAT SPGS CLOUDY    70  46  43 N3        30.18S
WALDEN         CLOUDY    68  41  37 NE10      30.26R
$$

COZ006>008-011-300000-
...WEST CENTRAL VALLEYS...

CITY           SKY/WX    TMP DP  RH WIND       PRES   REMARKS
GRAND JUNCTION MOSUNNY   83  36  18 VRB5      30.06F
MONTROSE       SUNNY     80  41  24 N8        30.14F
EAGLE          MOSUNNY   70  45  40 W5        30.20S
RIFLE          MOSUNNY   80  42  25 W8        30.10F
DELTA          SUNNY     86  38  18 SW10G16   30.08F
NUCLA          SUNNY     79  39  24 W3        30.16F
$$

COZ017>023-064>068-300000-
...SOUTHWEST COLORADO...

CITY           SKY/WX    TMP DP  RH WIND       PRES   REMARKS
DURANGO        SUNNY     79  32  18 SW7       30.15F
CORTEZ         SUNNY     83  38  20 N9        30.12F
PAGOSA SPRINGS MOSUNNY   77  23  13 SE6       30.22F
TELLURIDE      SUNNY     68  36  30 W10G17    30.34S
WOLF CREEK PAS MOSUNNY   52  32  46 SW18      30.52F
$$

COZ009-010-012-014-032>034-037-058>063-300000-
...CENTRAL COLORADO...

CITY           SKY/WX    TMP DP  RH WIND       PRES   REMARKS
ASPEN          PTSUNNY   72  40  31 NW13      30.25R
BUENA VISTA    PTSUNNY   71  29  21 SE10      30.24R
COPPER MTN     CLOUDY    46  34  61 W25G33    30.55R
BERTHOUD PASS  PTSUNNY   34  34 100 CALM      30.59R
COTTONWOOD PAS CLOUDY    63  27  25 SE12G21   30.38R
GUNNISON       MOSUNNY   70  39  32 W10       30.25S
KREMMLING      PTSUNNY   66  34  30 SE21G29   30.24R
LEADVILLE      LGT RAIN  47  40  76 NE8       30.40R
MONARCH PASS   PTSUNNY   52  32  46 NW14G22   30.64R
SALIDA         PTSUNNY   73  32  21 N5        30.28R
SUNLIGHT       PTSUNNY   57  43  58 CALM      30.49S
WILKERSON PASS NOT AVBL
$$

COZ069>075-300000-
...SAN LUIS VALLEY/SANGRE DE CRISTO MOUNTAINS...

CITY           SKY/WX    TMP DP  RH WIND       PRES   REMARKS
ALAMOSA        SUNNY     75  30  19 S10       30.22F
LA VETA PASS   NOT AVBL
SAGUACHE       NOT AVBL
$$

COZ035-036-038>040-300000-
...NORTHERN COLORADO FRONT RANGE...

CITY           SKY/WX    TMP DP  RH WIND       PRES   REMARKS
DENVER INTL AP LGT RAIN  66  48  52 W22G33    30.11F
DMNS CITY PARK   N/A     68  44  41 NW2G16    30.15S
AURORA         LGT RAIN  69  47  44 N25G35    30.16F
FRONT RANGE AP CLOUDY    72  48  43 W21G28    30.15
ERIE MUNI ARPT LGT RAIN  65  49  55 S8        30.12F
BOULDER MUN AP CLOUDY    63  46  55 W9        30.08F
CENTENNIAL     PTSUNNY   71  41  33 N7        30.17R
BROOMFIELD     NOT AVBL
FORT COLLINS   CLOUDY    70  54  56 SW13      30.09F
LONGMONT       CLOUDY    65  51  60 S5        30.10F
$$

COZ041-046-047-076>085-087-088-300000-
...PIKES PEAK/PALMER DIVIDE AND SOUTHERN FOOTHILLS...

CITY           SKY/WX    TMP DP  RH WIND       PRES   REMARKS
COLO. SPRINGS  PTSUNNY   70  44  39 NE23G29   30.16R THUNDER
A. F. ACADEMY  TSTM      57  48  72 N20G29    30.22R
ELLICOTT       TSTM      71  44  37 N12G22    30.13R
FALCON         TSTM      63  47  54 SW10G22   30.24R
FORT CARSON    PTSUNNY   76  42  28 W10       30.12R
LIMON          MOSUNNY   77  43  29 N12       30.09R
MONUMENT HILL  PTSUNNY   61  43  51 N15G24    30.23R
TRINIDAD       PTSUNNY   84  33  16 N9        30.09F
$$

COZ042>045-048>051-090-091-300000-
...NORTHEAST COLORADO...

CITY           SKY/WX    TMP DP  RH WIND       PRES   REMARKS
GREELEY ARPT   CLOUDY    63  46  55 SE20G49   30.10R THUNDER
AKRON          MOSUNNY   78  52  40 N12       30.04R
BURLINGTON     SUNNY     84  46  26 N10       30.00S
WRAY             N/A     83  49  30 N8        29.96S
STERLING       PTSUNNY   82  54  36 NE8       29.99R
HOLYOKE        MOSUNNY   84  52  32 N5        29.97R
FORT MORGAN    MOSUNNY   79  46  31 NE5       30.05R
$$

COZ086-089-092>099-300000-
...SOUTHEAST COLORADO...

CITY           SKY/WX    TMP DP  RH WIND       PRES   REMARKS
PUEBLO         MOSUNNY   86  35  16 SE8       30.00F
LA JUNTA       SUNNY     89  39  17 NE6       29.99R
LAMAR          SUNNY     89  43  20 N9        29.95R
SPRINGFIELD      N/A     84  43  23 N9        30.00S
$$



USA.gov is the U.S. government's official web portal to all federal, state and local government web resources and services.